Location: Fayetteville
(35.0530°N, 78.8790°W)
Time: 19:26:42
(UTC-04:00)

ISS - Visible Passes

Search period start: 03 September 2015 00:00
Search period end: 13 September 2015 00:00
Orbit: 400 x 403 km, 51.6° (Epoch: 01 September)

Date Brightness Start Highest point End Pass type
(mag) Time Alt. Az. Time Alt. Az. Time Alt. Az.
06 Sep -1.3 06:14:42 10° S 06:17:26 26° SE 06:20:14 10° ENE visible
07 Sep -0.5 05:23:00 10° SSE 05:24:18 12° SE 05:25:45 10° ESE visible
08 Sep -3.2 06:04:11 12° SW 06:07:09 74° SE 06:10:24 10° NE visible
09 Sep -2.0 05:13:32 30° SSE 05:13:57 31° SE 05:16:54 10° ENE visible
10 Sep -2.7 05:55:23 23° W 05:56:59 41° NW 06:00:06 10° NE visible
11 Sep -2.4 05:04:32 47° NE 05:04:32 47° NE 05:06:57 10° NE visible
12 Sep -1.5 05:46:12 18° NW 05:46:59 20° NNW 05:49:27 10° NNE visible
